Regional Weather Roundup
Issued by NWS

Home | Current Version | Previous Version | Graphics & Text | Print | Product List | Glossary On
Versions: 1 2 3 4 5 6 7 8 9 10 11 12 13 14 15 16 17 18 19 20 21 22 23 24 25 26 27 28 29 30 31 32 33 34 35 36 37 38 39 40 41 42 43 44 45 46 47 48 49 50
000
ASUS43 KDTX 261810
RWRMI
MICHIGAN HOURLY REGIONAL WEATHER ROUNDUP
NATIONAL WEATHER SERVICE DETROIT/PONTIAC MI
200 PM EDT FRI MAY 26 2017

NOTE: "FAIR" INDICATES FEW OR NO CLOUDS BELOW 12,000 FEET WITH NO
SIGNIFICANT WEATHER AND/OR OBSTRUCTION TO VISIBILITY.

MIZ047>049-052>055-059>063-066>070-074>076-081>083-261900-
SOUTHEAST LOWER MICHIGAN

CITY           SKY/WX    TMP DP  RH WIND       PRES   REMARKS
ADRIAN         PTSUNNY   67  53  61 W9        29.87F
6HR MIN TEMP:  56; 6HR MAX TEMP:  69;

ALMA           CLOUDY    66  53  64 N5        29.86F
ANN ARBOR      PTSUNNY   66  54  65 W9        29.86S
BAD AXE        CLOUDY    60  55  84 NW9       29.85S
6HR MIN TEMP:  52; 6HR MAX TEMP:  60;

CARO           CLOUDY    63  55  77 N7        29.85R
DETROIT CITY   CLOUDY    64  53  67 NW8       29.86S
6HR MIN TEMP:  56; 6HR MAX TEMP:  64;

DETROIT        CLOUDY    66  52  60 W12       29.87R
6HR MIN TEMP:  57; 6HR MAX TEMP:  67;

FLINT          CLOUDY    62  52  69 W9        29.86R
6HR MIN TEMP:  56; 6HR MAX TEMP:  64;

GROSSE ILE     CLOUDY    66  53  62 W8        29.86R
6HR MIN TEMP:  57; 6HR MAX TEMP:  67;

HILLSDALE      MOSUNNY   66  54  63 W6        29.87F
HOWELL         CLOUDY    64  50  60 W8        29.86F
6HR MIN TEMP:  55; 6HR MAX TEMP:  65;


CITY           SKY/WX    TMP DP  RH WIND       PRES   REMARKS
JACKSON        PTSUNNY   66  53  63 W9        29.87S
6HR MIN TEMP:  55; 6HR MAX TEMP:  68;

LAMBERTVILLE   CLOUDY    66  55  66 NW7       29.87S
6HR MIN TEMP:  57; 6HR MAX TEMP:  68;

LANSING        PTSUNNY   68  51  54 NW8       29.87F
6HR MIN TEMP:  56; 6HR MAX TEMP:  68;

LAPEER         CLOUDY    62  55  75 NW5       29.86S
6HR MIN TEMP:  55; 6HR MAX TEMP:  62;

MASON          CLOUDY    64  54  68 NW5       29.87F
MONROE         CLOUDY    66  53  62 W6        29.86F
6HR MIN TEMP:  57; 6HR MAX TEMP:  67;

MT. CLEMENS    CLOUDY    63  55  77 NW8       29.84S
6HR MIN TEMP:  56; 6HR MAX TEMP:  64; 6HR PCP: TRACE;

PONTIAC        CLOUDY    62  51  67 W5        29.85R
6HR MIN TEMP:  54; 6HR MAX TEMP:  63; 6HR PCP: TRACE;

PORT HOPE        N/A     59  55  87 NW8       29.83R
6HR MIN TEMP:  49; 6HR MAX TEMP:  59; 6HR PCP:  0.01;

PORT HURON     CLOUDY    61  54  77 NW6       29.84S
TRI CITIES     CLOUDY    66  54  65 N5        29.85S
6HR MIN TEMP:  57; 6HR MAX TEMP:  66;

MIDLAND        CLOUDY    65  52  61 CALM      29.84S HAZE
6HR MIN TEMP:  58; 6HR MAX TEMP:  66;

TROY           CLOUDY    65  51  62 W6        29.87S
SAGINAW HB     CLOUDY    64  50  59 W3        29.84F
$$
MIZ043>046-050>051-056>058-064>065-071>073-077>080-261900-
SOUTHWEST LOWER MICHIGAN

CITY           SKY/WX    TMP DP  RH WIND       PRES   REMARKS
BATTLE CREEK   MOSUNNY   69  55  60 VRB5      29.86F
6HR MIN TEMP:  52; 6HR MAX TEMP:  69;

BENTON HARBOR  PTSUNNY   69  52  54 VRB5      29.84F
6HR MIN TEMP:  53; 6HR MAX TEMP:  70;

BIG RAPIDS     PTSUNNY   68  48  48 N3        29.83F
6HR MIN TEMP:  53; 6HR MAX TEMP:  69;

COLDWATER      MOSUNNY   67  55  65 CALM      29.85F
6HR MIN TEMP:  53; 6HR MAX TEMP:  68;

FREMONT        FAIR      70  49  47 CALM      29.85S
HOLLAND        CLOUDY    68  53  58 W7        29.85F
6HR MIN TEMP:  50; 6HR MAX TEMP:  68;

GRAND RAPIDS   PTSUNNY   68  53  58 S3        29.85F
6HR MIN TEMP:  55; 6HR MAX TEMP:  69;

IONIA          PTSUNNY   67  51  57 N5        29.86S
6HR MIN TEMP:  56; 6HR MAX TEMP:  68;

KALAMAZOO      MOSUNNY   70  51  51 CALM      29.84F
6HR MIN TEMP:  51; 6HR MAX TEMP:  70;

LUDINGTON      MOSUNNY   63  54  72 W7        29.85F
6HR MIN TEMP:  47; 6HR MAX TEMP:  64;

MARSHALL       MOSUNNY   67  54  61 W3        29.86F
6HR MIN TEMP:  55; 6HR MAX TEMP:  68; 6HR PCP:  0.01;

MOUNT PLEASANT CLOUDY    65  51  60 CALM      29.85S
6HR MIN TEMP:  56; 6HR MAX TEMP:  65;

MUSKEGON       PTSUNNY   66  52  60 SW7       29.85F
6HR MIN TEMP:  55; 6HR MAX TEMP:  67;

SOUTH HAVEN    MOSUNNY   69  55  61 NW5       29.84F
$$
MIZ016>042-261900-
NORTHERN LOWER MICHIGAN

CITY           SKY/WX    TMP DP  RH WIND       PRES   REMARKS
ALPENA         CLOUDY    64  55  72 N9        29.84R
6HR MIN TEMP:  56; 6HR MAX TEMP:  65;

BEAVER ISLAND  MOSUNNY   67  53  61 W9        29.84S
6HR MIN TEMP:  55; 6HR MAX TEMP:  68;

BELLAIRE       PTSUNNY   67  52  59 SW3       29.83F
6HR MIN TEMP:  55; 6HR MAX TEMP:  67;

CADILLAC       CLOUDY    64  50  60 CALM      29.84F
CHARLEVOIX     SUNNY     62  53  73 NW9       29.88S
FRANKFORT      CLOUDY    60  51  70 W7        29.86R
GAYLORD        PTSUNNY   67  50  54 VRB3      29.84S
6HR MIN TEMP:  55; 6HR MAX TEMP:  67;

GRAYLING       CLOUDY    66  50  57 NE6       29.84S
HARBOR SPRINGS PTSUNNY   52  47  86 SW5       29.84F
HOUGHTON LAKE  PTSUNNY   66  50  56 NW6       29.84F
6HR MIN TEMP:  55; 6HR MAX TEMP:  68;

MANISTEE       MOSUNNY   64  53  67 W9        29.84F
OSCODA         CLOUDY    60  55  84 E6        29.83S
6HR MIN TEMP:  55; 6HR MAX TEMP:  62;

PELLSTON       MOSUNNY   70  49  47 MISG      29.83F
6HR MIN TEMP:  56; 6HR MAX TEMP:  70;

ROGERS CITY    CLOUDY    63  52  67 NE3       29.85S
TRAVERSE CITY  CLOUDY    67  51  56 NE6       29.83F
6HR MIN TEMP:  53; 6HR MAX TEMP:  67;

$$
MIZ007>008-015-261900-
EASTERN UPPER MICHIGAN

CITY           SKY/WX    TMP DP  RH WIND       PRES   REMARKS
KINROSS        CLOUDY    67  52  58 SE9       29.82F
6HR MIN TEMP:  53; 6HR MAX TEMP:  69;

MACKINAC ISLAN MOSUNNY   65  52  63 SW5       29.83S
6HR MIN TEMP:  55; 6HR MAX TEMP:  65;

NEWBERRY       MOSUNNY   70  52  51 E6        29.82S
6HR MIN TEMP:  51; 6HR MAX TEMP:  70;

S. S. MARIE    CLOUDY    68  55  63 W8        29.82R
6HR MIN TEMP:  54; 6HR MAX TEMP:  68;

MUNISING         N/A     56  50  80 N7        29.82F
6HR MIN TEMP:  49; 6HR MAX TEMP:  56;

$$
MIZ004>006-011>014-085-261900-
CENTRAL UPPER MICHIGAN

CITY           SKY/WX    TMP DP  RH WIND       PRES   REMARKS
MANISTIQUE     CLOUDY    60  50  69 SW10      29.83S
6HR MIN TEMP:  54; 6HR MAX TEMP:  66;

ESCANABA       MOSUNNY   64  53  67 S8        29.85S
6HR MIN TEMP:  51; 6HR MAX TEMP:  64;

MENOMINEE      MOSUNNY   66  52  60 S9        29.85S
6HR MIN TEMP:  52; 6HR MAX TEMP:  66;

SAWYER-GWINN   CLOUDY    66  50  55 SW5       29.83S
$$
MIZ001>003-009>011-084-261900-
WESTERN UPPER MICHIGAN

CITY           SKY/WX    TMP DP  RH WIND       PRES   REMARKS
IRON MOUNTAIN  CLOUDY    69  52  54 VRB7      29.81F
6HR MIN TEMP:  49; 6HR MAX TEMP:  69;

HOUGHTON       CLOUDY    64  50  60 SE8       29.81R
6HR MIN TEMP:  51; 6HR MAX TEMP:  64;

COPPER HARBOR    N/A     65  49  56 VRB7      29.80S
6HR MIN TEMP:  55; 6HR MAX TEMP:  67;

IRONWOOD       CLOUDY    66  53  63 S7        29.79S
6HR MIN TEMP:  56; 6HR MAX TEMP:  67; 6HR PCP:  0.01;

$$

ABBREVIATIONS USED IN REMARKS
   TC - TEMPERATURE IN CELSIUS
  WCI - WIND CHILL INDEX
   HX - HEAT INDEX
  VSB - VISIBILITY





USA.gov is the U.S. government's official web portal to all federal, state and local government web resources and services.